Simultaneous Nadir Overpasses (SNOs) Predictions

Prediction of SNOs between METOP-A and TERRA Satellite Orbit:

Table of predicted SNOs for the next 14.0 days since TLE Epoch: 8/11/2018
Index Date (METOP-A) Time (METOP-A) Lat,Lon (METOP-A) SZA (METOP-A ) Date (TERRA) Time (TERRA) Lat,Lon (TERRA) SZA (TERRA ) Distance(km) Time Diff (sec)
1 08/13/2018 02:15:51 -81.42, 15.73 110.33 08/13/2018 02:16:21 -81.43, 15.66 110.32 1.45 30
2 08/13/2018 03:06:31 81.42,-176.76 69.71 08/13/2018 03:05:48 81.42,-176.94 69.67 3.00 43
3 08/15/2018 21:50:08 -81.42, 81.96 109.47 08/15/2018 21:50:36 -81.42, 81.94 109.46 0.42 28
4 08/15/2018 22:40:47 81.42,-110.17 70.61 08/15/2018 22:40:02 81.43,-110.29 70.58 1.97 45
5 08/18/2018 17:24:25 -81.42, 148.17 108.58 08/18/2018 17:24:51 -81.41, 148.24 108.57 1.43 26
6 08/18/2018 18:15:04 81.42, -44.00 71.49 08/18/2018 18:14:17 81.42, -44.01 71.46 0.32 47
7 08/21/2018 12:58:40 -81.42,-145.24 107.63 08/21/2018 12:59:04 -81.43,-145.05 107.59 3.15 24
8 08/21/2018 13:49:19 81.42, 22.56 72.44 08/21/2018 13:48:30 81.43, 22.68 72.44 2.28 49
9 08/24/2018 08:32:56 -81.42, -78.67 106.65 08/24/2018 08:33:19 -81.42, -78.72 106.64 0.76 23




NCC Satellite Simultaneous Nadir Overpasses (SNOs) Prediction Service
